CYGFM02 (41886 NORAD) Tracking and Keplerian Element Data

This shows tracking and keplerian element data for the satellite.

Feedback or suggestion? Click here.




ElementValue
Catalog41886
NameCYGFM02
Epoch Orbit26367
Epoch Day261.92232343
Epoch Year2021
RAAN83.8169
Inclination34.9589
Eccentricity0.0014857
Argument of Perigee194.2039
Mean Anonmoly165.8256
Mean Motion15.15654413
Decay Rate5.99E-06
L11 41886U 16078C 21261.92232343 .00000599 00000-0 32397-4 0 9990
L22 41886 34.9589 83.8169 0014857 194.2039 165.8256 15.15654413263677

Live tracking and technical data element details for CYGFM02 (NORAD 41886). CYGFM02 can be tracked NOW for your location showing map with azimuth and elevation plus other details from your city location.

Track the satellite on the map from your city or location and see movement details for azimuth, elevation, latitude, longitude, range, height, and movement on the map or in text.







IsCatalogInMostPopularTable: catalog: 41886, numindb: 607
Update: records affected: 1



GetName: 41886 CYGFM02

Hit Count: updated at: Sun, 26 Sep 2021 00:08:05 GMT